Year,Month,Day,Hour,Minute,Value (Times are PST for temperature in C)
2018,07,04,10,27,23.80
2018,07,04,10,28,23.90
2018,07,04,10,29,23.90
2018,07,04,10,30,23.90
2018,07,04,10,31,24.00
2018,07,04,10,32,24.10
2018,07,04,10,33,24.10
2018,07,04,10,34,24.10
2018,07,04,10,35,24.10
2018,07,04,10,36,24.10
2018,07,04,10,37,24.20
2018,07,04,10,38,24.20
2018,07,04,10,39,24.20
2018,07,04,10,40,24.20
2018,07,04,10,41,24.20
2018,07,04,10,42,24.20
2018,07,04,10,43,24.20
2018,07,04,10,44,24.20
2018,07,04,10,45,24.20
2018,07,04,10,46,24.30
2018,07,04,10,47,24.30
2018,07,04,10,48,24.30
2018,07,04,10,49,24.40
2018,07,04,10,50,24.40
2018,07,04,10,51,24.40
2018,07,04,10,52,24.40
2018,07,04,10,53,24.40
2018,07,04,10,54,24.40
2018,07,04,10,55,24.40
2018,07,04,10,56,24.50
2018,07,04,10,57,24.50
2018,07,04,10,58,24.60
2018,07,04,10,59,24.60
2018,07,04,11,00,24.60
2018,07,04,11,01,24.70
2018,07,04,11,02,24.70
2018,07,04,11,03,24.70
2018,07,04,11,04,24.80
2018,07,04,11,05,24.80
2018,07,04,11,06,24.90
2018,07,04,11,07,24.90
2018,07,04,11,08,24.90
2018,07,04,11,09,24.90
2018,07,04,11,10,24.90
2018,07,04,11,11,24.90
2018,07,04,11,12,24.90
2018,07,04,11,13,24.90
2018,07,04,11,14,24.90
2018,07,04,11,15,24.90
2018,07,04,11,16,24.90
2018,07,04,11,17,24.90
2018,07,04,11,18,24.90
2018,07,04,11,19,24.90
2018,07,04,11,20,24.90
2018,07,04,11,21,24.80
2018,07,04,11,22,24.80
2018,07,04,11,23,24.80
2018,07,04,11,24,24.80
2018,07,04,11,25,24.80
2018,07,04,11,26,24.80
2018,07,04,11,27,24.90
2018,07,04,11,28,24.90
2018,07,04,11,29,25.00
2018,07,04,11,30,25.10
2018,07,04,11,31,25.10
2018,07,04,11,32,25.20
2018,07,04,11,33,25.30
2018,07,04,11,34,25.30
2018,07,04,11,35,25.40
2018,07,04,11,36,25.40
2018,07,04,11,37,25.50
2018,07,04,11,38,25.60
2018,07,04,11,39,25.60
2018,07,04,11,40,25.50
2018,07,04,11,41,25.50
2018,07,04,11,42,25.50
2018,07,04,11,43,25.50
2018,07,04,11,44,25.50
2018,07,04,11,45,25.50
2018,07,04,11,46,25.50
2018,07,04,11,47,25.50
2018,07,04,11,48,25.60
2018,07,04,11,49,25.60
2018,07,04,11,50,25.60
2018,07,04,11,51,25.60
2018,07,04,11,52,25.60
2018,07,04,11,53,25.60
2018,07,04,11,54,25.70
2018,07,04,11,55,25.70
2018,07,04,11,56,25.70
2018,07,04,11,57,25.70
2018,07,04,11,58,25.80
2018,07,04,11,59,25.80
2018,07,04,12,00,25.80
2018,07,04,12,01,25.90
2018,07,04,12,02,25.90
2018,07,04,12,03,25.90
2018,07,04,12,04,25.90
2018,07,04,12,05,25.90
2018,07,04,12,06,25.90
2018,07,04,12,07,25.90
2018,07,04,12,08,25.90
2018,07,04,12,09,25.90
2018,07,04,12,10,25.90
2018,07,04,12,11,25.80
2018,07,04,12,12,25.80
2018,07,04,12,13,25.80
2018,07,04,12,14,25.80
2018,07,04,12,15,25.80
2018,07,04,12,16,25.80
2018,07,04,12,17,25.80
2018,07,04,12,18,25.80
2018,07,04,12,19,25.80
2018,07,04,12,20,25.90
2018,07,04,12,21,25.90
2018,07,04,12,22,26.00
2018,07,04,12,23,26.10
2018,07,04,12,24,26.10
2018,07,04,12,25,26.20
2018,07,04,12,26,26.20
2018,07,04,12,27,26.30
2018,07,04,12,28,26.30
2018,07,04,12,29,26.40
2018,07,04,12,30,26.40
2018,07,04,12,31,26.50
2018,07,04,12,32,26.50
2018,07,04,12,33,26.60
2018,07,04,12,34,26.60
2018,07,04,12,35,26.70
2018,07,04,12,36,26.70
2018,07,04,12,37,26.80
2018,07,04,12,38,26.80
2018,07,04,12,39,26.80
2018,07,04,12,40,26.70
2018,07,04,12,41,26.70
2018,07,04,12,42,26.70
2018,07,04,12,43,26.70
2018,07,04,12,44,26.60
2018,07,04,12,45,26.40
2018,07,04,12,46,26.10
2018,07,04,12,47,25.80
2018,07,04,12,48,25.60
2018,07,04,12,49,25.40
2018,07,04,12,50,25.10
2018,07,04,12,51,24.90
2018,07,04,12,52,24.70
2018,07,04,12,53,24.50
2018,07,04,12,54,24.30
2018,07,04,12,55,24.10
2018,07,04,12,56,24.00
2018,07,04,12,57,23.80
2018,07,04,12,58,23.80
2018,07,04,12,59,23.80
2018,07,04,13,00,23.80
2018,07,04,13,01,23.80
2018,07,04,13,02,23.90
2018,07,04,13,03,23.90
2018,07,04,13,04,24.00
2018,07,04,13,05,24.10
2018,07,04,13,06,24.20
2018,07,04,13,07,24.20
2018,07,04,13,08,24.30
2018,07,04,13,09,24.20
2018,07,04,13,10,24.20
2018,07,04,13,11,24.20
2018,07,04,13,12,24.20
2018,07,04,13,13,24.30
2018,07,04,13,14,24.40
2018,07,04,13,15,24.40
2018,07,04,13,16,24.50
2018,07,04,13,17,24.50
2018,07,04,13,18,24.60
2018,07,04,13,19,24.60
2018,07,04,13,20,24.60
2018,07,04,13,21,24.60
2018,07,04,13,22,24.60
2018,07,04,13,23,24.50
2018,07,04,13,24,24.40
2018,07,04,13,25,24.30
2018,07,04,13,26,24.30
2018,07,04,13,27,24.20
2018,07,04,13,28,24.20
2018,07,04,13,29,24.30
2018,07,04,13,30,24.30
2018,07,04,13,31,24.30
2018,07,04,13,32,24.30
2018,07,04,13,33,24.30
2018,07,04,13,34,24.30
2018,07,04,13,35,24.30
2018,07,04,13,36,24.30
2018,07,04,13,37,24.20
2018,07,04,13,38,24.10
2018,07,04,13,39,24.00
2018,07,04,13,40,24.00
2018,07,04,13,41,23.90
2018,07,04,13,42,23.90
2018,07,04,13,43,23.90
2018,07,04,13,44,23.90
2018,07,04,13,45,23.90
2018,07,04,13,46,23.90
2018,07,04,13,47,23.90
2018,07,04,13,48,23.90
2018,07,04,13,49,23.90
2018,07,04,13,50,24.00
2018,07,04,13,51,24.00
2018,07,04,13,52,24.00
2018,07,04,13,53,24.00
2018,07,04,13,54,23.90
2018,07,04,13,55,23.90
2018,07,04,13,56,23.90
2018,07,04,13,57,23.80
2018,07,04,13,58,23.70
2018,07,04,13,59,23.70
2018,07,04,14,00,23.60
2018,07,04,14,01,23.60
2018,07,04,14,02,23.60
2018,07,04,14,03,23.60
2018,07,04,14,04,23.60
2018,07,04,14,05,23.60
2018,07,04,14,06,23.70
2018,07,04,14,07,23.60
2018,07,04,14,08,23.60
2018,07,04,14,09,23.60
2018,07,04,14,10,23.60
2018,07,04,14,11,23.60
2018,07,04,14,12,23.60
2018,07,04,14,13,23.60
2018,07,04,14,14,23.60
2018,07,04,14,15,23.70
2018,07,04,14,16,23.70
2018,07,04,14,17,23.70
2018,07,04,14,18,23.70
2018,07,04,14,19,23.70
2018,07,04,14,20,23.80
2018,07,04,14,21,23.80
2018,07,04,14,22,23.80
2018,07,04,14,23,23.80
2018,07,04,14,24,23.80
2018,07,04,14,25,23.70
2018,07,04,14,26,23.60
2018,07,04,14,27,23.60
2018,07,04,14,28,23.60
2018,07,04,14,29,23.60
2018,07,04,14,30,23.60
2018,07,04,14,31,23.60
2018,07,04,14,32,23.60
2018,07,04,14,33,23.60
2018,07,04,14,34,23.60
2018,07,04,14,35,23.60
2018,07,04,14,36,23.60
2018,07,04,14,37,23.60
2018,07,04,14,38,23.50
2018,07,04,14,39,23.40
2018,07,04,14,40,23.40
2018,07,04,14,41,23.40
2018,07,04,14,42,23.40
2018,07,04,14,43,23.40
2018,07,04,14,44,23.40
2018,07,04,14,45,23.50
2018,07,04,14,46,23.40
2018,07,04,14,47,23.40
2018,07,04,14,48,23.50
2018,07,04,14,49,23.60
2018,07,04,14,50,23.60
2018,07,04,14,51,23.60
2018,07,04,14,52,23.70
2018,07,04,14,53,23.70
2018,07,04,14,54,23.70
2018,07,04,14,55,23.70
2018,07,04,14,56,23.80
2018,07,04,14,57,23.80
2018,07,04,14,58,23.80
2018,07,04,14,59,23.80
2018,07,04,15,00,23.80
2018,07,04,15,01,23.90
2018,07,04,15,02,23.90
2018,07,04,15,03,24.00
2018,07,04,15,04,24.00
2018,07,04,15,05,24.00
2018,07,04,15,06,24.00
2018,07,04,15,07,23.90
2018,07,04,15,08,24.00
2018,07,04,15,09,24.00
2018,07,04,15,10,24.00
2018,07,04,15,11,24.10
2018,07,04,15,12,24.00
2018,07,04,15,13,24.00
2018,07,04,15,14,24.00
2018,07,04,15,15,24.00
2018,07,04,15,16,24.00
2018,07,04,15,17,24.10
2018,07,04,15,18,24.00
2018,07,04,15,19,24.00
2018,07,04,15,20,23.90
2018,07,04,15,21,23.90
2018,07,04,15,22,23.90
2018,07,04,15,23,23.90
2018,07,04,15,24,23.90
2018,07,04,15,25,23.90
2018,07,04,15,26,24.00
2018,07,04,15,27,24.10
2018,07,04,15,28,24.10
2018,07,04,15,29,24.20
2018,07,04,15,30,24.20
2018,07,04,15,31,24.20
2018,07,04,15,32,24.10
2018,07,04,15,33,24.10
2018,07,04,15,34,24.10
2018,07,04,15,35,24.10
2018,07,04,15,36,24.10
2018,07,04,15,37,24.10
2018,07,04,15,38,24.10
2018,07,04,15,39,24.10
2018,07,04,15,40,24.10
2018,07,04,15,41,24.10
2018,07,04,15,42,24.10
2018,07,04,15,43,24.00
2018,07,04,15,44,24.00
2018,07,04,15,45,24.00
2018,07,04,15,46,23.90
2018,07,04,15,47,24.00
2018,07,04,15,48,24.00
2018,07,04,15,49,24.00
2018,07,04,15,50,24.00
2018,07,04,15,51,24.00
2018,07,04,15,52,24.10
2018,07,04,15,53,24.10
2018,07,04,15,54,24.10
2018,07,04,15,55,24.20
2018,07,04,15,56,24.20
2018,07,04,15,57,24.20
2018,07,04,15,58,24.20
2018,07,04,15,59,24.20
2018,07,04,16,00,24.20
2018,07,04,16,01,24.10
2018,07,04,16,02,24.10
2018,07,04,16,03,24.10
2018,07,04,16,04,24.10
2018,07,04,16,05,24.10
2018,07,04,16,06,24.00
2018,07,04,16,07,24.00
2018,07,04,16,08,24.00
2018,07,04,16,09,24.00
2018,07,04,16,10,24.00
2018,07,04,16,11,23.90
2018,07,04,16,12,23.90
2018,07,04,16,13,23.80
2018,07,04,16,14,23.80
2018,07,04,16,15,23.70
2018,07,04,16,16,23.60
2018,07,04,16,17,23.40
2018,07,04,16,18,23.30
2018,07,04,16,19,23.20
2018,07,04,16,20,23.00
2018,07,04,16,21,22.90
2018,07,04,16,22,22.80
2018,07,04,16,23,22.70
2018,07,04,16,24,22.70
2018,07,04,16,25,22.70
2018,07,04,16,26,22.70
2018,07,04,16,27,22.60
2018,07,04,16,28,22.60
2018,07,04,16,29,22.60
2018,07,04,16,30,22.70
2018,07,04,16,31,22.70
2018,07,04,16,32,22.70
2018,07,04,16,33,22.70
2018,07,04,16,34,22.70
2018,07,04,16,35,22.80
2018,07,04,16,36,22.80
2018,07,04,16,37,22.80
2018,07,04,16,38,22.90
2018,07,04,16,39,22.90
2018,07,04,16,40,23.00
2018,07,04,16,41,23.00
2018,07,04,16,42,23.10
2018,07,04,16,43,23.10
2018,07,04,16,44,23.20
2018,07,04,16,45,23.30
2018,07,04,16,46,23.30
2018,07,04,16,47,23.40
2018,07,04,16,48,23.50
2018,07,04,16,49,23.50
2018,07,04,16,50,23.60
2018,07,04,16,51,23.70
2018,07,04,16,52,23.70
2018,07,04,16,53,23.80
2018,07,04,16,54,23.80
2018,07,04,16,55,23.90
2018,07,04,16,56,23.90
2018,07,04,16,57,24.00
2018,07,04,16,58,24.00
2018,07,04,16,59,24.10
2018,07,04,17,00,24.10
2018,07,04,17,01,24.10
2018,07,04,17,02,24.20
2018,07,04,17,03,24.20
2018,07,04,17,04,24.20
2018,07,04,17,05,24.30
2018,07,04,17,06,24.30
2018,07,04,17,07,24.30
2018,07,04,17,08,24.40
2018,07,04,17,09,24.40
2018,07,04,17,10,24.40
2018,07,04,17,11,24.50
2018,07,04,17,12,24.50
2018,07,04,17,13,24.60
2018,07,04,17,14,24.60
2018,07,04,17,15,24.60
2018,07,04,17,16,24.60
2018,07,04,17,17,24.70
2018,07,04,17,18,24.70
2018,07,04,17,19,24.70
2018,07,04,17,20,24.70
2018,07,04,17,21,24.70
2018,07,04,17,22,24.70
2018,07,04,17,23,24.70
2018,07,04,17,24,24.70
2018,07,04,17,25,24.70
2018,07,04,17,26,24.70
2018,07,04,17,27,24.70
2018,07,04,17,28,24.70
2018,07,04,17,29,24.70
2018,07,04,17,30,24.70
2018,07,04,17,31,24.70
2018,07,04,17,32,24.70
2018,07,04,17,33,24.70
2018,07,04,17,34,24.70
2018,07,04,17,35,24.70
2018,07,04,17,36,24.70
2018,07,04,17,37,24.70
2018,07,04,17,38,24.60
2018,07,04,17,39,24.60
2018,07,04,17,40,24.50
2018,07,04,17,41,24.30
2018,07,04,17,42,24.20
2018,07,04,17,43,24.10
2018,07,04,17,44,24.00
2018,07,04,17,45,23.90
2018,07,04,17,46,23.70
2018,07,04,17,47,23.50
2018,07,04,17,48,23.40
2018,07,04,17,49,23.30
2018,07,04,17,50,23.30
2018,07,04,17,51,23.30
2018,07,04,17,52,23.30
2018,07,04,17,53,23.30
2018,07,04,17,54,23.30
2018,07,04,17,55,23.30
2018,07,04,17,56,23.30
2018,07,04,17,57,23.30
2018,07,04,17,58,23.30
